AAY3891 KPVU-KBUR

Flight info

Callsign AAY3891
Flight time N/A
Altitude 38000
Route DITTI1 DAHLI MLF WINEN/N0433F370 EEVUN/N0434F380 Q73 GUNTR Q96 PURSE JANNY5
Aircraft A320/M-SDE3FGHIRWY/LB1

Departure

Time N/A
Airport Provo Municipal Airport (KPVU)

Arrival

Time 2026-05-08 04:47
Airport Hollywood Burbank/Bob Hope Airport (KBUR)
Time Latitude Longitude Altitude Speed Heading
2026-05-08 04:15 35.49410 -115.31696 37988 ft 469 kts 229°
2026-05-08 04:15 35.47218 -115.34654 37970 ft 469 kts 229°
2026-05-08 04:15 35.42816 -115.40621 38004 ft 468 kts 230°
2026-05-08 04:16 35.38475 -115.46489 37999 ft 467 kts 229°
2026-05-08 04:16 35.34091 -115.52388 37997 ft 468 kts 229°
2026-05-08 04:17 35.29698 -115.58279 37981 ft 468 kts 229°
2026-05-08 04:17 35.25303 -115.64167 37953 ft 468 kts 229°
2026-05-08 04:18 35.20897 -115.70059 37954 ft 469 kts 229°
2026-05-08 04:18 35.16499 -115.75939 37959 ft 469 kts 229°
2026-05-08 04:19 35.12245 -115.81873 37193 ft 464 kts 236°
2026-05-08 04:19 35.10487 -115.85187 35804 ft 468 kts 240°
2026-05-08 04:19 35.08796 -115.88550 35003 ft 460 kts 240°
2026-05-08 04:20 35.07134 -115.91872 34145 ft 455 kts 241°
2026-05-08 04:20 35.05489 -115.95153 33151 ft 453 kts 240°
2026-05-08 04:20 35.03841 -115.98420 32193 ft 451 kts 240°
2026-05-08 04:20 35.02187 -116.01678 31200 ft 453 kts 240°
2026-05-08 04:21 35.00513 -116.04957 30167 ft 457 kts 240°
2026-05-08 04:21 34.98828 -116.08251 28944 ft 460 kts 240°
2026-05-08 04:21 34.97123 -116.11587 27827 ft 466 kts 240°
2026-05-08 04:21 34.95394 -116.14969 26576 ft 474 kts 239°
2026-05-08 04:22 34.93642 -116.18398 25356 ft 480 kts 239°
2026-05-08 04:22 34.91904 -116.21893 24165 ft 484 kts 243°
2026-05-08 04:22 34.90423 -116.25600 23114 ft 489 kts 246°
2026-05-08 04:22 34.88973 -116.29347 22832 ft 490 kts 246°
2026-05-08 04:23 34.87531 -116.33062 22898 ft 493 kts 247°
2026-05-08 04:23 34.86065 -116.36844 22894 ft 493 kts 246°
2026-05-08 04:23 34.84601 -116.40624 22914 ft 494 kts 246°
2026-05-08 04:23 34.83133 -116.44408 22922 ft 493 kts 246°
2026-05-08 04:24 34.81665 -116.48177 22930 ft 494 kts 246°
2026-05-08 04:24 34.80196 -116.51956 22940 ft 493 kts 248°
2026-05-08 04:24 34.79019 -116.55875 22950 ft 491 kts 256°
2026-05-08 04:24 34.78314 -116.59935 22649 ft 487 kts 265°
2026-05-08 04:25 34.77926 -116.64019 22396 ft 486 kts 266°
2026-05-08 04:25 34.77542 -116.68090 22129 ft 484 kts 265°
2026-05-08 04:25 34.77154 -116.72143 21876 ft 481 kts 265°
2026-05-08 04:25 34.76763 -116.76173 21755 ft 481 kts 266°
2026-05-08 04:26 34.76370 -116.80206 21579 ft 479 kts 265°
2026-05-08 04:26 34.75977 -116.84179 21433 ft 478 kts 265°
2026-05-08 04:26 34.75578 -116.88183 21267 ft 478 kts 265°
2026-05-08 04:26 34.75174 -116.92192 21108 ft 476 kts 264°
2026-05-08 04:27 34.74770 -116.96183 20941 ft 474 kts 264°
2026-05-08 04:27 34.74366 -117.00163 20786 ft 473 kts 265°
2026-05-08 04:27 34.73963 -117.04129 20624 ft 472 kts 264°
2026-05-08 04:27 34.73693 -117.06752 20510 ft 471 kts 264°
2026-05-08 04:28 34.73157 -117.11989 20302 ft 470 kts 264°
2026-05-08 04:28 34.72886 -117.14648 20193 ft 469 kts 264°
2026-05-08 04:28 34.72353 -117.19859 20080 ft 468 kts 264°
2026-05-08 04:28 34.72082 -117.22509 19988 ft 468 kts 265°
2026-05-08 04:29 34.71683 -117.26375 19852 ft 467 kts 264°
2026-05-08 04:29 34.71274 -117.30289 19709 ft 465 kts 264°
2026-05-08 04:29 34.70866 -117.34186 19566 ft 465 kts 264°
2026-05-08 04:29 34.70459 -117.38086 19419 ft 464 kts 264°
2026-05-08 04:30 34.70052 -117.41967 19260 ft 462 kts 264°
2026-05-08 04:30 34.69645 -117.45838 19107 ft 462 kts 264°
2026-05-08 04:30 34.69237 -117.49708 18676 ft 460 kts 264°
2026-05-08 04:30 34.68831 -117.53550 18137 ft 456 kts 264°
2026-05-08 04:31 34.68424 -117.57360 17650 ft 454 kts 264°
2026-05-08 04:31 34.68017 -117.61154 17172 ft 452 kts 264°
2026-05-08 04:31 34.67613 -117.64918 16690 ft 448 kts 264°
2026-05-08 04:31 34.67212 -117.68672 16197 ft 445 kts 264°
2026-05-08 04:32 34.66817 -117.72401 15663 ft 443 kts 264°
2026-05-08 04:32 34.66428 -117.76093 15215 ft 439 kts 264°
2026-05-08 04:32 34.66037 -117.79762 14793 ft 437 kts 264°
2026-05-08 04:32 34.65649 -117.83366 14358 ft 435 kts 264°
2026-05-08 04:33 34.65258 -117.87001 14061 ft 432 kts 263°
2026-05-08 04:33 34.64868 -117.90607 13980 ft 429 kts 264°
2026-05-08 04:33 34.64486 -117.94106 14016 ft 407 kts 264°
2026-05-08 04:33 34.64118 -117.97436 14027 ft 387 kts 263°
2026-05-08 04:34 34.63769 -118.00588 13957 ft 364 kts 264°
2026-05-08 04:34 34.63441 -118.03524 13835 ft 339 kts 264°
2026-05-08 04:34 34.63119 -118.06278 13478 ft 324 kts 261°
2026-05-08 04:34 34.62579 -118.08898 12941 ft 316 kts 256°
2026-05-08 04:35 34.62014 -118.11452 12386 ft 309 kts 256°
2026-05-08 04:35 34.61457 -118.13957 11771 ft 304 kts 255°
2026-05-08 04:35 34.60911 -118.16410 11204 ft 299 kts 256°
2026-05-08 04:35 34.60372 -118.18829 10638 ft 294 kts 256°
2026-05-08 04:36 34.59876 -118.21061 10101 ft 289 kts 255°
2026-05-08 04:36 34.59357 -118.23398 9500 ft 284 kts 256°
2026-05-08 04:36 34.58844 -118.25694 8868 ft 280 kts 257°
2026-05-08 04:36 34.58336 -118.27961 8660 ft 279 kts 256°
2026-05-08 04:37 34.57823 -118.30252 8542 ft 282 kts 256°
2026-05-08 04:37 34.57308 -118.32550 8349 ft 282 kts 257°
2026-05-08 04:37 34.56793 -118.34843 8091 ft 281 kts 257°
2026-05-08 04:37 34.56279 -118.37125 7971 ft 279 kts 257°
2026-05-08 04:38 34.55775 -118.39370 7975 ft 281 kts 258°
2026-05-08 04:38 34.55161 -118.41632 7978 ft 284 kts 247°
2026-05-08 04:38 34.54053 -118.43628 7979 ft 289 kts 230°
2026-05-08 04:38 34.52490 -118.45172 7951 ft 292 kts 216°
2026-05-08 04:39 34.50788 -118.46522 7558 ft 292 kts 216°
2026-05-08 04:39 34.49092 -118.47862 7341 ft 292 kts 217°
2026-05-08 04:39 34.47384 -118.49212 7139 ft 292 kts 217°
2026-05-08 04:39 34.45677 -118.50546 6948 ft 293 kts 217°
2026-05-08 04:40 34.43963 -118.51872 6762 ft 292 kts 217°
2026-05-08 04:40 34.42248 -118.53192 6566 ft 292 kts 217°
2026-05-08 04:40 34.40540 -118.54505 6376 ft 289 kts 216°
2026-05-08 04:40 34.38849 -118.55809 6193 ft 287 kts 216°
2026-05-08 04:41 34.37072 -118.56908 6013 ft 289 kts 201°
2026-05-08 04:41 34.35096 -118.57354 5793 ft 288 kts 184°
2026-05-08 04:41 34.33110 -118.57298 5549 ft 282 kts 180°
2026-05-08 04:41 34.31174 -118.57226 5311 ft 275 kts 181°
2026-05-08 04:42 34.29283 -118.57159 5098 ft 268 kts 181°
2026-05-08 04:42 34.27478 -118.57063 4779 ft 262 kts 179°
2026-05-08 04:42 34.25705 -118.56930 4449 ft 250 kts 178°
2026-05-08 04:42 34.24000 -118.56775 4142 ft 242 kts 173°
2026-05-08 04:43 34.22416 -118.56176 3861 ft 235 kts 151°
2026-05-08 04:43 34.21159 -118.54999 3581 ft 224 kts 130°
2026-05-08 04:43 34.20344 -118.53461 3327 ft 213 kts 111°
2026-05-08 04:43 34.19991 -118.51757 3086 ft 207 kts 92°
2026-05-08 04:44 34.19970 -118.50028 2862 ft 204 kts 89°
2026-05-08 04:44 34.19953 -118.48388 2637 ft 186 kts 90°
2026-05-08 04:44 34.19934 -118.46893 2353 ft 171 kts 91°
2026-05-08 04:44 34.19914 -118.45511 2128 ft 158 kts 91°
2026-05-08 04:45 34.19895 -118.44247 1942 ft 145 kts 91°
2026-05-08 04:45 34.19877 -118.43063 1741 ft 139 kts 91°
2026-05-08 04:45 34.19858 -118.41906 1584 ft 136 kts 92°
2026-05-08 04:45 34.19847 -118.40762 1392 ft 136 kts 92°
2026-05-08 04:46 34.19839 -118.39638 1235 ft 136 kts 93°
2026-05-08 04:46 34.19813 -118.38498 1043 ft 134 kts 92°
2026-05-08 04:46 34.19798 -118.37379 853 ft 133 kts 94°
2026-05-08 04:46 34.19787 -118.36286 719 ft 122 kts 94°
2026-05-08 04:47 34.19772 -118.35505 698 ft 44 kts 91°
2026-05-08 04:47 34.19768 -118.35244 690 ft 25 kts 91°
2026-05-08 04:47 34.19764 -118.35061 697 ft 12 kts 94°
2026-05-08 04:47 34.19749 -118.35031 689 ft 9 kts 135°
2026-05-08 04:48 34.19733 -118.35017 694 ft 1 kts 154°